Lid_Strength_Index
1 1 1 1 1 2 2 4 5 4 6 5 7 7 7 7 6 5 6 6 7 7 6 6 7 6 7 7 7 7 7 7 8 6 5 4 5 5 4 5 4 4 4
1 1 2 2 3 4 5 5 4 6 7 6 7 8 8 7 6 6 8 8 8 8 7 7 8 7 7 7 7 8 8 7 8 8 6 6 6 5 5 5 5 4 4
1 1 1 3 5 5 6 6 7 8 8 8 9 7 8 7 8 8 9 9 8 7 7 8 8 7 7 7 7 8 7 7 7 8 8 7 6 6 6 5 5 5 5
2 2 2 4 5 7 8 8 8 9 9 9 8 9 8 8 9 10 10 9 7 7 7 8 8 8 8 8 8 7 7 7 7 8 7 7 7 7 8 9 8 6 5
4 6 6 6 7 7 8 9 10 10 10 9 10 9 8 9 9 10 9 8 8 8 8 8 8 9 10 9 8 8 7 8 8 8 7 7 8 9 10 10 10 9 5
6 8 8 9 10 10 10 11 11 12 11 10 10 10 9 10 11 10 8 8 9 9 9 8 9 9 9 9 10 9 9 9 9 9 9 9 9 9 9 10 11 10 10
7 8 9 10 11 12 12 12 12 13 12 11 10 9 10 10 10 9 9 8 9 8 8 9 9 9 9 9 8 9 9 10 10 10 10 10 10 10 10 10 9 10 11
10 10 10 11 11 11 12 12 13 13 12 11 10 10 10 9 10 10 10 9 8 8 9 8 8 9 10 9 8 8 8 7 8 8 9 9 9 9 8 8 9 10 10
11 11 11 12 12 12 13 13 14 13 13 12 11 10 8 9 11 11 9 8 9 9 8 9 10 10 12 12 8 9 8 7 8 9 9 9 8 8 7 8 10 12 12
10 11 12 13 14 13 14 13 13 13 13 12 11 9 9 10 11 11 9 9 9 9 9 9 12 11 12 12 9 9 9 9 8 7 6 6 6 6 7 8 10 12 13
10 11 12 12 14 14 14 13 13 13 13 12 11 10 10 10 11 11 10 8 9 10 11 11 11 12 13 12 12 11 11 10 8 7 7 6 5 6 8 9 9 10 12
11 12 13 14 13 13 13 13 14 13 12 12 11 11 10 10 10 11 11 11 10 10 11 11 11 13 13 13 11 13 12 9 8 7 7 7 8 9 9 9 9 9 9
12 13 14 14 14 14 13 12 13 12 11 11 11 12 11 10 10 11 11 11 11 11 11 13 13 13 12 11 12 11 10 9 8 8 8 9 9 10 9 9 9 8 9
12 13 14 14 14 13 12 12 12 12 11 11 11 11 11 10 10 10 10 11 12 11 12 12 13 12 12 11 10 10 9 9 9 8 8 8 9 10 11 10 10 11 10
12 12 13 12 12 12 11 11 11 10 10 10 11 10 11 11 11 12 12 12 12 13 11 11 11 11 11 11 10 10 9 9 9 8 8 9 11 11 11 10 11 11 12
11 12 12 12 13 12 12 13 13 13 13 13 12 11 11 12 13 13 14 14 14 14 12 12 12 12 11 11 10 10 9 9 8 8 8 9 11 12 12 11 11 11 12
11 11 12 13 13 13 12 12 13 12 12 12 12 12 13 13 13 14 14 14 14 13 12 13 13 12 11 11 10 9 9 9 8 8 8 9 11 12 12 12 12 12 12
11 11 13 13 13 12 12 11 11 11 12 12 12 12 13 13 13 14 14 13 13 13 13 13 13 12 11 11 10 9 9 9 8 8 8 9 10 11 12 12 12 12 12
11 12 12 12 11 12 11 11 11 10 11 11 12 12 13 13 14 14 14 13 13 13 13 13 12 12 11 10 10 10 9 8 8 8 8 9 10 11 11 11 11 12 12
13 13 13 12 12 11 11 11 11 11 11 11 11 11 11 11 12 12 12 13 13 13 13 13 12 12 11 11 10 10 9 8 8 8 8 8 9 10 11 11 11 11 11
13 12 14 12 11 11 11 11 11 11 11 11 11 11 14 11 12 12 13 13 13 13 13 12 12 12 11 10 10 9 9 8 7 8 8 8 8 9 10 10 11 10 11
13 11 11 11 11 11 11 11 10 10 10 11 11 12 14 11 12 12 13 13 13 13 12 12 12 11 11 10 10 9 9 8 8 8 8 8 8 9 9 10 10 10 10
11 11 11 11 11 12 10 10 10 10 10 10 10 11 11 11 12 12 13 13 13 12 12 11 11 11 10 9 9 8 8 8 8 7 8 8 8 9 9 10 10 10 11
12 12 11 11 11 10 10 10 10 11 10 10 10 11 11 11 12 12 12 13 12 12 11 11 11 11 10 9 9 8 8 9 8 7 7 7 8 9 9 10 10 10 10
11 11 11 11 11 10 10 10 10 9 10 10 10 11 11 11 12 12 12 12 12 11 11 11 10 10 10 10 9 9 10 12 9 11 7 7 8 8 9 10 10 10 10
11 11 10 11 10 10 10 10 9 10 10 10 10 10 11 11 11 12 12 11 12 11 11 10 10 10 10 10 10 11 11 11 10 11 7 7 8 9 9 10 11 11 11